Location: Bjelajci
(45.0103°N, 16.1758°E)
Time: 09:27:53
(UTC+00:00)

Lacrosse 5 - Pass Details

Date: 14 July 2020
Orbit: 717 x 720 km, 57.0° (Epoch: 04 August)

Event Time Altitude Azimuth Distance (km) Brightness Sun altitude
Rises 01:51:19 0° 286° (WNW) 3,125 4.9 -12.9°
Reaches altitude 10° 01:54:13 10° 302° (WNW) 2,205 4.3 -12.6°
Maximum altitude 01:58:08 22° 352° (N) 1,559 4.1 -12.1°
Drops below altitude 10° 02:02:02 10° 43° (NE) 2,208 6.0 -11.7°
Sets 02:04:57 0° 59° (ENE) 3,130 6.8 -11.3°
